Regional Weather Roundup
Issued by NWS

Home | Current Version | Previous Version | Text Only | Print | Product List | Glossary On
Versions: 1 2 3 4 5 6 7 8 9 10 11 12 13 14 15 16 17 18 19 20 21 22 23 24 25 26 27 28 29 30 31 32 33 34 35 36 37 38 39 40 41 42 43 44 45 46 47 48 49 50
000
ASUS43 KBIS 270620
RWRND

NORTH DAKOTA REGIONAL WEATHER ROUNDUP
NATIONAL WEATHER SERVICE BISMARCK ND
100 AM CDT FRI MAR 27 2015

NOTE: "FAIR" INDICATES FEW OR NO CLOUDS BELOW 12,000 FEET WITH NO
SIGNIFICANT WEATHER AND/OR OBSTRUCTIONS TO VISIBILITY.


NDZ001>003-009>011-017-270700-
NORTHWEST NORTH DAKOTA

CITY           SKY/WX    TMP DP  RH WIND       PRES   REMARKS
WILLISTON      CLOUDY    37  28  70 S5        30.10F
6HR MIN TEMP:  37; 6HR MAX TEMP:  45;

MINOT          PTCLDY    27  18  69 SE10      30.18F WCI  17
MINOT AFB      PTCLDY    27  23  84 S13       30.17F WCI  16
$$

NDZ018>021-031>035-040>046-270700-
SOUTHWEST NORTH DAKOTA

CITY           SKY/WX    TMP DP  RH WIND       PRES   REMARKS
BISMARCK       MOCLDY    25  17  72 E7        30.25R WCI  17
6HR MIN TEMP:  22; 6HR MAX TEMP:  38;

DICKINSON      CLOUDY    32  27  81 S12       30.11F
GARRISON         N/A     27  20  75 SE8       30.19S WCI  19
6HR MIN TEMP:  25; 6HR MAX TEMP:  38;

HETTINGER ARPT CLOUDY    32  27  81 S9        30.16F
$$

NDZ004>008-012>016-024-026-027-054-270700-
NORTHEAST NORTH DAKOTA

CITY           SKY/WX    TMP DP  RH WIND       PRES   REMARKS
GRAND FORKS    CLEAR     15  11  83 CALM      30.31R
GRND FRKS AFB  CLEAR     14  11  88 CALM      30.31R
DEVILS LAKE    CLEAR     21  16  79 S7        30.25S WCI  13
$$

NDZ022-023-025-028>030-036>039-047>053-270700-
SOUTHEAST NORTH DAKOTA

CITY           SKY/WX    TMP DP  RH WIND       PRES   REMARKS
FARGO          CLEAR     16   9  74 W3        30.31S
6HR MIN TEMP:  13; 6HR MAX TEMP:  32;

JAMESTOWN      CLEAR     20  13  74 SE5       30.27R WCI  13
$$




USA.gov is the U.S. government's official web portal to all federal, state and local government web resources and services.